Strona główna
METAR-TAF:

METAR-TAF

Lotnisko :

Ellsworth Air Force Base

Rapid City / Ellsworth, Dakota Południowa, Stany Zjednoczone

Szerokość geograficzna: 44-09N, Długość geograficzna: 103-06W, wysokość: 999 m

Aktualna obserwacja pogody

Raport powstał 1 godzina i 2 minut temu, godzina 03:56 UTC
Wiatr 5 kt od południowo-południowy zachód
Temperatura 6°C
Wilgotność 49%
Ciśnienie 1016 hPa
Widzialność: 16.1 km
bezchmurnie

METAR: KRCA 300356Z AUTO 21005KT 10SM CLR 06/M04 A3000 RMK AO2 SLP167 T00611044

czas: 22:58 (04:58 UTC)


TAF: brakujący

Obserwacja i prognoza pogody dla ponad 4000 lotnisk (raport METAR i TAF).

Dostępne stacje oznaczono żółtymi i czerwonymi punktami na mapie.

Najedź kursorem aby zobaczyć nazwę stacji.

Kliknij aby zobaczyć obserwacje i prognozy pogody.

Aby zmienić mapę: kliknij na zielony przycisk z czarnym krzyżykiem, aby powiększyć; na zielony przycisk z myślnikiem, aby pomniejszyć; na zielone strzałki, aby przejść do map sąsiednich.


METAR-TAF: